Location: Melara
(45.0500°N, 11.1833°E)
Time: 00:09:37
(UTC+00:00)

UKube-1 - Pass Details

Date: 05 June 2024
Orbit: 581 x 590 km, 98.3° (Epoch: 21 June)

Event Time Altitude Azimuth Distance (km) Brightness Sun altitude
Rises 00:45:30 0° 10° (N) 2,814 ? -19.2°
Reaches altitude 10° 00:47:40 10° 8° (N) 1,910 ? -19.1°
Maximum altitude 00:51:45 64° 287° (WNW) 651 ? -18.8°
Enters shadow 00:52:56 43° 225° (SW) 828 ? -18.7°
